Home   Weather   Surgut   Past weeks

Flag for Russia Past Weather in Surgut, Russia — Yesterday and Last 2 Weeks

Now
36 °F

Passing clouds.


Feels Like: 27 °F
Forecast: 12 / 22 °F
Wind: 13 mph from Southeast

Location: Surgut Airport

Current Time: Feb 27, 2017 at 6:43:35 pm

Latest Report: Feb 27, 2017 at 6:00 pm


Visibility: 4 mi

Pressure: 29.42 "Hg

Humidity: 81%

Dew Point: 30 °F

Location of SurgutLocation

Past Weather in Surgut — Graph

°F

Surgut Temperature Yesterday

Maximum temperature yesterday: 27 °F (at 11:30 pm)
Minimum temperature yesterday: 5 °F (at 3:00 am)
Average temperature yesterday: 13 °F

High & Low Weather Summary for the Past Weeks

 TemperatureHumidityPressure
High37 °F (Feb 27, 10:00 am)100% (Feb 21, 4:00 pm)30.24 "Hg (Feb 21, 4:00 pm)
Low-13 °F (Feb 13, 3:00 am)63% (Feb 24, 9:30 am)29.18 "Hg (Feb 21, 12:00 pm)
Average13 °F84%29.77 "Hg
* Reported Feb 12 5:00 pm — Feb 27 5:00 pm, Surgut, Weather by CustomWeather, © 2017

Note: Actual official high and low records may vary slightly from our data, if they occured in-between our weather recording intervals... More about our weather records

Advertising

Surgut Weather History for the Previous 24 Hours

Scroll right to see more
 ConditionsComfort  
Time TempWeatherWind HumidityBarometerVisibility
5:00 pm
Mon, Feb 27
37 °FScattered clouds.10 mph70%29.45 "Hg4 mi
4:30 pm37 °FScattered clouds.15 mph70%29.47 "Hg4 mi
4:00 pm37 °FScattered clouds.15 mph75%29.50 "Hg4 mi
3:30 pm36 °FScattered clouds.10 mph93%29.53 "Hg4 mi
3:00 pm36 °FSprinkles. Scattered clouds.17 mph93%29.53 "Hg4 mi
2:30 pm37 °FSprinkles. Scattered clouds.17 mph81%29.56 "Hg4 mi
2:00 pm37 °FScattered clouds.13 mph75%29.56 "Hg4 mi
1:30 pm37 °FScattered clouds.17 mph81%29.56 "Hg4 mi
1:00 pm37 °FScattered clouds.17 mph81%29.59 "Hg4 mi
12:30 pm37 °FScattered clouds.17 mph81%29.59 "Hg4 mi
12:00 pm37 °FScattered clouds.17 mph81%29.59 "Hg4 mi
11:30 am37 °FScattered clouds.10 mph81%29.62 "Hg4 mi
11:00 am37 °FSprinkles. Scattered clouds.10 mph87%29.62 "Hg4 mi
10:30 am37 °FScattered clouds.17 mph87%29.62 "Hg4 mi
10:00 am37 °FScattered clouds.17 mph87%29.62 "Hg4 mi
9:30 am36 °FScattered clouds.17 mph100%29.62 "Hg4 mi
9:00 am36 °FOvercast.15 mph100%29.62 "Hg4 mi
8:30 am36 °FLight rain. Overcast.15 mph100%29.62 "Hg4 mi
8:00 am36 °FPartly sunny.10 mph100%29.62 "Hg4 mi
7:30 am36 °FBroken clouds.13 mph100%29.62 "Hg4 mi
7:00 am36 °FPartly cloudy.13 mph100%29.62 "Hg4 mi
6:30 am36 °FPartly cloudy.10 mph100%29.62 "Hg4 mi
6:00 am36 °FPartly cloudy.8 mph100%29.62 "Hg4 mi
5:30 am36 °FOvercast.8 mph100%29.62 "Hg4 mi
5:00 am34 °FLow clouds.8 mph100%29.62 "Hg4 mi
4:30 am34 °FLow clouds.8 mph100%29.62 "Hg4 mi
4:00 am32 °FLight snow. Low clouds.10 mph100%29.62 "Hg2 mi
3:30 am32 °FLight snow. Low clouds.8 mph100%29.62 "Hg1 mi
3:00 am30 °FLight snow. Low clouds.8 mph100%29.62 "Hg2 mi
2:30 am30 °FLight snow. Low clouds.8 mph100%29.62 "Hg2 mi
2:00 am28 °FLight snow. Low clouds.10 mph100%29.65 "Hg2 mi
1:30 am28 °FLight snow. Mostly cloudy.10 mph100%29.65 "Hg2 mi
1:00 am28 °FLight snow. Low clouds.13 mph100%29.65 "Hg2 mi
12:30 am27 °FLow clouds.15 mph100%29.65 "Hg2 mi
12:00 am27 °FLow clouds.15 mph100%29.65 "Hg2 mi
11:30 pm
Sun, Feb 26
27 °FLow clouds.17 mph100%29.65 "Hg2 mi
11:00 pm25 °FLow clouds.15 mph100%29.65 "Hg4 mi
10:30 pm25 °FLow clouds.15 mph100%29.65 "Hg4 mi
10:00 pm25 °FLight snow. Low clouds.15 mph100%29.68 "Hg4 mi
9:30 pm23 °FLow clouds.15 mph100%29.68 "Hg2 mi
9:00 pm23 °FLow clouds.15 mph100%29.68 "Hg1 mi
8:30 pm21 °FLow clouds.15 mph100%29.71 "Hg1 mi
8:00 pm21 °FIce fog.15 mph100%29.71 "Hg1 mi
7:30 pm21 °FIce fog.20 mph100%29.74 "Hg1 mi
7:00 pm21 °FSnow. Low clouds.15 mph93%29.74 "Hg1 mi
6:30 pm19 °FLow clouds.20 mph100%29.77 "Hg4 mi
6:00 pm19 °FLight snow. Low clouds.15 mph93%29.77 "Hg4 mi
Weather by CustomWeather, © 2017

See weather overviewHow to use our weather pages